Powrót do katalogu

COSMOS 272

AktywnyMilitariaLEO
NORAD 3818·PAYLOAD·🇷🇺 Russia

Wystrzelony Mar 17, 1969 z Plesetsk Cosmodrome

Loading…

Następne Przeloty (najbliższe 24 godziny)

TLE

ŚwieżeSource: Space-Track

Epoka: Sep 14, 2026, 02:06 UTC

1 03818U 69024A   26257.08784037 -.00000153  00000-0 -34064-3 0  9991
2 03818  73.9896 122.3980 0019730 299.9242 224.6580 13.17952054765569

Śledź COSMOS 272 w czasie rzeczywistym z AllMySat

Download on the App Store